Location: Peach Mountain Observatory
(42.3967°N, 83.9367°W)
Time: 11:13:42
(UTC-05:00)

S-56A Canister/Altair - Pass Details

Date: 25 January 2020
Orbit: 633 x 2499 km, 38.9° (Epoch: 17 February)

Event Time Altitude Azimuth Distance (km) Brightness Sun altitude
Rises 02:13:32 0° 271° (W) 2,929 - -60.5°
Reaches altitude 10° 02:16:21 10° 252° (WSW) 2,012 - -60.1°
Maximum altitude 02:19:29 19° 207° (SSW) 1,575 - -59.7°
Drops below altitude 10° 02:22:53 10° 162° (SSE) 2,215 - -59.2°
Sets 02:26:12 0° 145° (SE) 3,349 - -58.8°
